Weather History for KLVK - August, 2014

Change the Weather History Date:

Saturday, August 9, 2014

  Actual Average Record
Temperature  
Mean Temperature 69 °F 72 °F  
Max Temperature 81 °F 88 °F 107 °F (1984)
Min Temperature 57 °F 57 °F 46 °F (1943)
Degree Days  
Heating Degree Days 0 0  
Month to date heating degree days 0 0  
Since 1 June heating degree days 4 36  
Since 1 July heating degree days 0 4  
Cooling Degree Days 4 7  
Month to date cooling degree days 87 71  
Year to date cooling degree days 733 465  
Since 1 June cooling degree days 607 412  
Growing Degree Days 18 (Base 50)    
Moisture  
Dew Point 54 °F    
Average Humidity 65    
Maximum Humidity 87    
Minimum Humidity 42    
Precipitation  
Precipitation 0.00 in 0.00 in 0.00 in (2015)
Month to date precipitation 0.00 0.00  
Year to date precipitation 4.88 9.90  
Since 1 July precipitation T T  
Sea Level Pressure  
Sea Level Pressure 29.92 in    
Wind  
Wind Speed 13 mph (WNW)    
Max Wind Speed 21 mph    
Max Gust Speed 25 mph    
Visibility 10 miles    
Events      
T = Trace of Precipitation, MM = Missing Value Source: NWS Daily Summary

Daily Weather History Graph

Daily Weather History Graph

Search for Another Location

Airport or City:

Trip Planner

Search our weather history database for the weather conditions in past years. The results will help you decide how hot, cold, wet, or windy it might be!

Date:

Astronomy

Aug. 09, 2014 Rise Set
Actual Time 6:17 AM PDT 8:07 PM PDT
Civil Twilight 5:49 AM PDT 8:35 PM PDT
Nautical Twilight 5:15 AM PDT 9:09 PM PDT
Astronomical Twilight 4:38 AM PDT 9:46 PM PDT
Moon 7:13 PM PDT (8/9) 5:04 AM PDT (8/9)
Length of Visible Light 14h 45m
Length of Day
13h 49m
Waxing Gibbous, 99% of the Moon is Illuminated
Aug 9
Waxing Gibbous
Aug 10
Full
Aug 17
Last Quarter
Aug 25
New
Sep 2
First Quarter

Hourly Weather History & Observations

Time (PDT) Temp. Dew Point Humidity Pressure Visibility Wind Dir Wind Speed Gust Speed Precip Events Conditions
12:53 AM 62.1 °F 53.1 °F 72% 29.88 in 10.0 mi NW 9.2 mph - N/A   Clear
1:53 AM 60.1 °F 53.1 °F 78% 29.88 in 10.0 mi WNW 8.1 mph - N/A   Clear
2:53 AM 60.1 °F 54.0 °F 80% 29.88 in 10.0 mi NW 11.5 mph - N/A   Clear
3:53 AM 59.0 °F 55.0 °F 87% 29.89 in 9.0 mi NW 6.9 mph - N/A   Clear
4:53 AM 57.9 °F 54.0 °F 87% 29.90 in 9.0 mi NW 8.1 mph - N/A   Clear
5:53 AM 57.9 °F 54.0 °F 87% 29.91 in 9.0 mi WNW 9.2 mph - N/A   Clear
6:53 AM 57.9 °F 54.0 °F 87% 29.93 in 8.0 mi WNW 8.1 mph - N/A   Clear
7:53 AM 60.1 °F 54.0 °F 80% 29.94 in 10.0 mi WNW 13.8 mph - N/A   Clear
8:53 AM 63.0 °F 54.0 °F 72% 29.95 in 10.0 mi WNW 12.7 mph - N/A   Clear
10:53 AM 69.1 °F 54.0 °F 58% 29.94 in 10.0 mi WNW 8.1 mph - N/A   Clear
11:53 AM 73.9 °F 54.0 °F 50% 29.94 in 10.0 mi NW 9.2 mph - N/A   Clear
12:53 PM 77.0 °F 54.0 °F 45% 29.92 in 10.0 mi WNW 15.0 mph - N/A   Clear
1:53 PM 79.0 °F 54.0 °F 42% 29.91 in 10.0 mi WNW 16.1 mph - N/A   Clear
2:53 PM 78.1 °F 55.0 °F 45% 29.91 in 10.0 mi WNW 16.1 mph - N/A   Clear
3:53 PM 77.0 °F 54.0 °F 45% 29.89 in 10.0 mi NW 18.4 mph 23.0 mph N/A   Clear
4:53 PM 75.0 °F 54.0 °F 48% 29.88 in 10.0 mi WNW 17.3 mph - N/A   Clear
5:53 PM 72.0 °F 54.0 °F 53% 29.89 in 10.0 mi West 19.6 mph - N/A   Clear
6:53 PM 66.9 °F 53.1 °F 61% 29.90 in 10.0 mi WNW 16.1 mph - N/A   Clear
9:53 PM 57.9 °F 54.0 °F 87% 29.97 in 10.0 mi WNW 11.5 mph - N/A   Clear
10:53 PM 57.9 °F 54.0 °F 87% 29.97 in 10.0 mi West 12.7 mph - N/A   Clear
11:53 PM 57.9 °F 54.0 °F 87% 29.97 in 10.0 mi West 5.8 mph - N/A   Mostly Cloudy